TimeCDT,TemperatureF,Dew PointF,Humidity,Sea Level PressureIn,VisibilityMPH,Wind Direction,Wind SpeedMPH,Gust SpeedMPH,PrecipitationIn,Events,Conditions,WindDirDegrees,DateUTC
12:13 AM,26.6,18.7,72,30.20,10.0,SW,3.5,-,N/A,,Clear,230,2013-03-26 05:13:00
12:33 AM,25.7,19.4,77,30.20,10.0,WSW,3.5,-,N/A,,Clear,240,2013-03-26 05:33:00
12:52 AM,25.5,19.6,78,30.20,10.0,WSW,3.5,-,N/A,,Clear,240,2013-03-26 05:52:00
1:13 AM,24.8,19.4,80,30.20,10.0,WSW,4.6,-,N/A,,Clear,240,2013-03-26 06:13:00
1:33 AM,24.4,19.0,80,30.20,10.0,SSW,4.6,-,N/A,,Clear,200,2013-03-26 06:33:00
1:52 AM,23.9,19.0,82,30.21,10.0,SSW,3.5,-,N/A,,Scattered Clouds,210,2013-03-26 06:52:00
2:13 AM,23.9,18.7,80,30.21,10.0,WSW,4.6,-,N/A,,Mostly Cloudy,240,2013-03-26 07:13:00
2:32 AM,25.0,19.2,79,30.20,10.0,WSW,4.6,-,N/A,,Overcast,240,2013-03-26 07:32:00
2:53 AM,25.5,19.4,78,30.20,10.0,WSW,4.6,-,N/A,,Overcast,250,2013-03-26 07:53:00
3:13 AM,25.3,19.2,78,30.20,10.0,WSW,5.8,-,N/A,,Overcast,250,2013-03-26 08:13:00
3:32 AM,25.3,19.4,78,30.20,10.0,SW,3.5,-,N/A,,Overcast,230,2013-03-26 08:32:00
3:53 AM,26.1,19.8,77,30.20,10.0,WSW,5.8,-,N/A,,Overcast,250,2013-03-26 08:53:00
4:13 AM,26.1,19.9,78,30.21,10.0,WSW,5.8,-,N/A,,Overcast,250,2013-03-26 09:13:00
4:32 AM,26.1,19.9,78,30.21,10.0,West,5.8,-,N/A,,Overcast,260,2013-03-26 09:32:00
4:53 AM,26.1,19.9,78,30.21,10.0,Calm,Calm,-,N/A,,Overcast,0,2013-03-26 09:53:00
5:13 AM,26.1,20.1,78,30.22,10.0,SW,3.5,-,N/A,,Overcast,230,2013-03-26 10:13:00
5:32 AM,25.7,19.9,79,30.22,10.0,WSW,4.6,-,N/A,,Overcast,250,2013-03-26 10:32:00
5:53 AM,25.7,19.8,78,30.22,10.0,WSW,4.6,-,N/A,,Overcast,240,2013-03-26 10:53:00
6:13 AM,25.7,19.8,78,30.23,10.0,West,4.6,-,N/A,,Overcast,270,2013-03-26 11:13:00
6:32 AM,25.5,19.6,78,30.23,10.0,WSW,4.6,-,N/A,,Overcast,250,2013-03-26 11:32:00
6:53 AM,25.3,19.4,78,30.23,10.0,West,8.1,-,N/A,,Overcast,260,2013-03-26 11:53:00
7:13 AM,25.2,19.2,78,30.24,10.0,West,5.8,-,N/A,,Overcast,260,2013-03-26 12:13:00
7:33 AM,24.8,19.0,79,30.25,10.0,West,5.8,-,N/A,,Overcast,260,2013-03-26 12:33:00
7:53 AM,24.8,19.0,79,30.25,10.0,West,4.6,-,N/A,,Overcast,260,2013-03-26 12:53:00
8:13 AM,24.8,18.9,78,30.26,10.0,West,5.8,-,N/A,,Overcast,270,2013-03-26 13:13:00
8:33 AM,24.8,18.9,78,30.26,10.0,West,6.9,-,N/A,,Overcast,270,2013-03-26 13:33:00
8:53 AM,25.2,18.7,76,30.26,10.0,West,8.1,-,N/A,,Overcast,270,2013-03-26 13:53:00
9:13 AM,25.7,19.2,76,30.27,10.0,West,5.8,-,N/A,,Overcast,270,2013-03-26 14:13:00
9:33 AM,26.1,19.4,76,30.27,10.0,West,5.8,-,N/A,,Overcast,280,2013-03-26 14:33:00
9:53 AM,26.2,19.2,75,30.27,10.0,West,6.9,-,N/A,,Overcast,270,2013-03-26 14:53:00
10:13 AM,26.6,19.2,74,30.28,10.0,West,5.8,-,N/A,,Overcast,270,2013-03-26 15:13:00
10:33 AM,27.1,19.4,73,30.28,10.0,West,5.8,-,N/A,,Overcast,280,2013-03-26 15:33:00
10:53 AM,27.9,19.4,71,30.28,10.0,West,5.8,-,N/A,,Overcast,280,2013-03-26 15:53:00
11:13 AM,28.8,20.1,70,30.28,10.0,West,6.9,-,N/A,,Overcast,280,2013-03-26 16:13:00
11:33 AM,29.3,20.1,69,30.28,10.0,West,5.8,-,N/A,,Overcast,280,2013-03-26 16:33:00
11:53 AM,30.6,20.5,66,30.28,10.0,WNW,5.8,-,N/A,,Overcast,290,2013-03-26 16:53:00
12:13 PM,31.1,21.4,67,30.28,10.0,West,5.8,-,N/A,,Overcast,280,2013-03-26 17:13:00
12:33 PM,31.3,20.3,64,30.27,10.0,WSW,6.9,-,N/A,,Overcast,250,2013-03-26 17:33:00
12:53 PM,31.8,21.2,65,30.27,10.0,West,4.6,-,N/A,,Mostly Cloudy,260,2013-03-26 17:53:00
1:13 PM,32.5,21.2,63,30.27,10.0,WSW,5.8,-,N/A,,Scattered Clouds,240,2013-03-26 18:13:00
1:33 PM,33.3,21.9,63,30.26,10.0,WSW,5.8,-,N/A,,Scattered Clouds,240,2013-03-26 18:33:00
1:52 PM,34.0,22.1,62,30.26,10.0,WSW,5.8,-,N/A,,Clear,250,2013-03-26 18:52:00
2:13 PM,34.5,22.8,62,30.26,10.0,WNW,6.9,-,N/A,,Clear,290,2013-03-26 19:13:00
2:33 PM,34.3,23.4,64,30.26,10.0,WNW,8.1,-,N/A,,Clear,290,2013-03-26 19:33:00
2:52 PM,34.2,23.5,65,30.26,10.0,West,8.1,-,N/A,,Clear,280,2013-03-26 19:52:00
3:13 PM,34.5,23.5,64,30.26,10.0,West,8.1,-,N/A,,Clear,280,2013-03-26 20:13:00
3:33 PM,34.7,21.4,58,30.26,10.0,West,9.2,-,N/A,,Clear,280,2013-03-26 20:33:00
3:52 PM,35.1,21.9,59,30.26,10.0,West,8.1,-,N/A,,Clear,280,2013-03-26 20:52:00
4:13 PM,35.6,22.3,58,30.25,10.0,West,9.2,-,N/A,,Clear,270,2013-03-26 21:13:00
4:33 PM,35.6,22.5,59,30.25,10.0,West,9.2,-,N/A,,Clear,280,2013-03-26 21:33:00
4:52 PM,36.0,22.3,58,30.25,10.0,West,8.1,-,N/A,,Scattered Clouds,280,2013-03-26 21:52:00
5:13 PM,36.0,20.5,53,30.25,10.0,WNW,9.2,-,N/A,,Overcast,290,2013-03-26 22:13:00
5:32 PM,35.8,21.7,57,30.25,10.0,West,6.9,-,N/A,,Overcast,270,2013-03-26 22:32:00
5:53 PM,36.0,21.6,56,30.25,10.0,West,5.8,-,N/A,,Overcast,270,2013-03-26 22:53:00
6:13 PM,35.6,21.4,56,30.25,10.0,West,5.8,-,N/A,,Mostly Cloudy,270,2013-03-26 23:13:00
6:32 PM,34.7,21.4,58,30.25,10.0,West,5.8,-,N/A,,Scattered Clouds,270,2013-03-26 23:32:00
6:53 PM,34.2,21.2,59,30.25,10.0,West,4.6,-,N/A,,Scattered Clouds,270,2013-03-26 23:53:00
7:13 PM,33.8,21.2,60,30.25,10.0,WSW,3.5,-,N/A,,Mostly Cloudy,250,2013-03-27 00:13:00
7:32 PM,33.1,22.1,64,30.25,10.0,WSW,3.5,-,N/A,,Overcast,240,2013-03-27 00:32:00
7:53 PM,33.1,21.7,63,30.25,10.0,WSW,5.8,-,N/A,,Mostly Cloudy,240,2013-03-27 00:53:00
8:13 PM,32.4,20.7,62,30.26,10.0,WSW,3.5,-,N/A,,Mostly Cloudy,250,2013-03-27 01:13:00
8:32 PM,31.3,22.5,70,30.26,10.0,Calm,Calm,-,N/A,,Scattered Clouds,0,2013-03-27 01:32:00
8:53 PM,30.0,22.1,72,30.26,10.0,SW,3.5,-,N/A,,Clear,220,2013-03-27 01:53:00
9:13 PM,28.2,21.7,77,30.26,10.0,SSW,3.5,-,N/A,,Clear,200,2013-03-27 02:13:00
9:32 PM,28.9,21.6,74,30.27,10.0,SSW,4.6,-,N/A,,Clear,210,2013-03-27 02:32:00
9:52 PM,28.4,21.0,74,30.27,10.0,SSW,3.5,-,N/A,,Clear,210,2013-03-27 02:52:00
10:13 PM,28.0,20.8,74,30.27,10.0,SSW,3.5,-,N/A,,Clear,200,2013-03-27 03:13:00
10:33 PM,28.4,20.3,72,30.27,10.0,South,3.5,-,N/A,,Clear,190,2013-03-27 03:33:00
10:53 PM,26.4,20.7,79,30.27,10.0,SSW,3.5,-,N/A,,Clear,200,2013-03-27 03:53:00
11:13 PM,25.2,20.7,83,30.28,10.0,SSW,3.5,-,N/A,,Clear,200,2013-03-27 04:13:00
11:33 PM,25.2,20.1,81,30.28,10.0,SSW,3.5,-,N/A,,Clear,210,2013-03-27 04:33:00
11:52 PM,23.9,19.2,82,30.29,10.0,Calm,Calm,-,N/A,,Clear,0,2013-03-27 04:52:00